contact:dominique.lefevre@mio.osupytheas.fr, maurice.libes@osupytheas.fr, didier.mallarino@osupytheas.fr
Project:EMSO http://www.emso-fr.org/EMSO-France
Depth: 2436.0 m
Title:EMSO Ligure Ouest : Data MII capteur AQUADOPP
Date,Latitude,Longitude,X_East,Y_North,Z_Up,Amplitude_X,Amplitude_Y,Amplitude_Z,Batterie,SoundSpeed,Heading,Pitch,Roll,Pressure,TIS,Speed,Direction
, degrees North, degrees East, m.s-1, m.s-1,m.s-1, 1, 1, 1, Volt, m.s-1, degree, degree, degree, dbar, degree_C, m.s-1, degree
2020-02-25T00:04:02,42.805,6.029,-0.081,0.053,-0.003,109.0,115.0,106.0,13.3,1505.2,323.2,-0.7,1.8,2470.139,13.3,0.096,303.2
2020-02-25T00:07:02,42.805,6.029,-0.062,0.043,-0.005,109.0,113.0,106.0,13.4,1505.3,326.6,-0.7,1.9,2470.136,13.31,0.075,304.7
2020-02-25T00:10:03,42.805,6.029,-0.077,0.049,-0.03,110.0,112.0,105.0,13.4,1505.3,326.3,-0.7,1.8,2470.114,13.32,0.091,302.5
2020-02-25T00:13:03,42.805,6.029,-0.071,0.031,-0.03,110.0,113.0,107.0,13.4,1505.3,327.7,-0.7,1.8,2470.082,13.32,0.077,293.6
2020-02-25T00:16:03,42.805,6.029,-0.033,0.049,0.0,109.0,115.0,105.0,13.4,1505.3,324.3,-0.7,1.8,2470.103,13.32,0.059,326.0
2020-02-25T00:19:03,42.805,6.029,-0.056,0.044,-0.019,110.0,114.0,105.0,13.4,1505.3,326.7,-0.7,1.8,2470.132,13.32,0.071,308.2
2020-02-25T00:22:02,42.805,6.029,-0.068,0.061,-0.044,108.0,113.0,104.0,13.4,1505.3,324.1,-0.7,1.9,2470.166,13.32,0.091,311.9
2020-02-25T00:25:03,42.805,6.029,-0.065,0.049,-0.048,111.0,114.0,105.0,13.4,1505.3,324.7,-0.7,1.8,2470.125,13.32,0.081,307.0
2020-02-25T00:28:03,42.805,6.029,-0.045,0.049,-0.041,110.0,113.0,106.0,13.3,1505.3,327.5,-0.7,1.8,2470.111,13.32,0.066,317.4
2020-02-25T00:31:02,42.805,6.029,-0.04,0.053,-0.023,108.0,114.0,104.0,13.3,1505.3,325.0,-0.7,1.8,2470.047,13.32,0.066,323.0
2020-02-25T00:34:03,42.805,6.029,-0.045,0.021,-0.019,111.0,117.0,106.0,13.4,1505.3,327.2,-0.7,1.8,2470.113,13.32,0.049,295.0
2020-02-25T00:37:02,42.805,6.029,-0.071,0.034,-0.01,110.0,115.0,106.0,13.4,1505.3,324.0,-0.7,1.8,2470.051,13.32,0.078,295.6
2020-02-25T00:40:03,42.805,6.029,-0.047,0.048,-0.008,110.0,115.0,106.0,13.4,1505.3,325.0,-0.7,1.8,2470.093,13.32,0.067,315.6
2020-02-25T00:43:03,42.805,6.029,-0.055,0.06,-0.012,109.0,113.0,106.0,13.4,1505.3,327.0,-0.7,1.8,2470.07,13.32,0.081,317.5
2020-02-25T00:46:03,42.805,6.029,-0.043,0.035,-0.027,108.0,115.0,107.0,13.4,1505.3,323.8,-0.7,1.8,2470.052,13.32,0.055,309.1
2020-02-25T00:49:03,42.805,6.029,-0.059,0.054,-0.002,108.0,115.0,106.0,13.4,1505.3,324.0,-0.7,1.8,2470.075,13.32,0.079,312.5
2020-02-25T00:52:02,42.805,6.029,-0.066,0.058,0.015,110.0,115.0,106.0,13.4,1505.3,326.2,-0.7,1.8,2470.069,13.32,0.087,311.3
2020-02-25T00:55:03,42.805,6.029,-0.044,0.057,0.028,109.0,115.0,105.0,13.4,1505.3,326.6,-0.7,1.8,2470.075,13.32,0.072,322.3
2020-02-25T00:58:03,42.805,6.029,-0.068,0.05,-0.031,109.0,114.0,105.0,13.4,1505.3,324.2,-0.7,1.8,2470.043,13.32,0.084,306.3
2020-02-25T01:04:02,42.805,6.029,-0.036,0.053,-0.03,109.0,115.0,106.0,13.4,1505.2,323.4,-0.7,1.8,2470.13,13.3,0.064,325.8
2020-02-25T01:07:03,42.805,6.029,-0.042,0.065,0.02,108.0,114.0,104.0,13.4,1505.3,324.5,-0.7,1.8,2470.115,13.31,0.077,327.1
2020-02-25T01:10:03,42.805,6.029,-0.068,0.04,-0.003,110.0,113.0,105.0,13.4,1505.3,325.4,-0.7,1.8,2470.081,13.32,0.078,300.5
2020-02-25T01:13:03,42.805,6.029,-0.054,0.065,0.015,109.0,116.0,105.0,13.4,1505.3,325.3,-0.7,1.8,2470.073,13.32,0.084,320.3
2020-02-25T01:16:03,42.805,6.029,-0.081,0.047,-0.028,107.0,115.0,104.0,13.4,1505.3,328.2,-0.7,1.8,2470.106,13.32,0.093,300.1
2020-02-25T01:19:03,42.805,6.029,-0.059,0.056,-0.03,109.0,115.0,105.0,13.4,1505.3,326.5,-0.7,1.8,2470.065,13.32,0.081,313.5
2020-02-25T01:22:02,42.805,6.029,-0.028,0.033,-0.004,109.0,115.0,104.0,13.3,1505.3,327.9,-0.7,1.8,2470.086,13.32,0.043,319.7
2020-02-25T01:25:03,42.805,6.029,-0.057,0.039,-0.018,109.0,115.0,105.0,13.4,1505.3,324.6,-0.7,1.8,2470.074,13.32,0.069,304.4
2020-02-25T01:28:03,42.805,6.029,-0.039,0.06,0.009,109.0,115.0,105.0,13.4,1505.3,323.7,-0.7,1.8,2470.068,13.32,0.071,327.0
2020-02-25T01:31:03,42.805,6.029,-0.072,0.051,-0.004,110.0,114.0,105.0,13.3,1505.3,325.9,-0.7,1.8,2470.043,13.32,0.088,305.3
2020-02-25T01:34:03,42.805,6.029,-0.052,0.038,-0.02,110.0,114.0,106.0,13.3,1505.3,328.0,-0.7,1.8,2470.059,13.32,0.064,306.2
2020-02-25T01:37:03,42.805,6.029,-0.041,0.053,0.013,110.0,115.0,106.0,13.3,1505.3,324.9,-0.7,1.8,2470.072,13.32,0.067,322.3
2020-02-25T01:40:03,42.805,6.029,-0.066,0.048,-0.011,108.0,115.0,104.0,13.4,1505.3,324.9,-0.7,1.8,2470.08,13.32,0.081,306.0
2020-02-25T01:43:03,42.805,6.029,-0.054,0.055,-0.009,109.0,116.0,105.0,13.4,1505.3,323.8,-0.7,1.8,2470.033,13.32,0.077,315.5
2020-02-25T01:46:03,42.805,6.029,-0.073,0.046,-0.015,110.0,116.0,105.0,13.4,1505.3,326.3,-0.7,1.8,2470.049,13.32,0.086,302.2
2020-02-25T01:49:03,42.805,6.029,-0.053,0.039,-0.025,109.0,115.0,105.0,13.3,1505.3,324.7,-0.7,1.8,2470.088,13.32,0.065,306.3
2020-02-25T01:52:03,42.805,6.029,-0.051,0.053,0.009,109.0,116.0,106.0,13.3,1505.3,325.1,-0.7,1.8,2470.057,13.32,0.073,316.1
2020-02-25T01:55:03,42.805,6.029,-0.053,0.056,0.002,108.0,117.0,104.0,13.4,1505.3,326.0,-0.7,1.8,2470.101,13.32,0.077,316.6
2020-02-25T01:58:03,42.805,6.029,-0.071,0.04,0.019,110.0,115.0,104.0,13.3,1505.3,324.0,-0.7,1.8,2470.055,13.32,0.081,299.4
2020-02-25T02:04:02,42.805,6.029,-0.054,0.039,0.005,109.0,115.0,105.0,13.3,1505.2,324.3,-0.7,1.8,2470.122,13.3,0.066,305.8
2020-02-25T02:07:03,42.805,6.029,-0.057,0.06,0.0,108.0,116.0,105.0,13.4,1505.3,327.3,-0.8,1.8,2470.092,13.31,0.082,316.5
2020-02-25T02:10:03,42.805,6.029,-0.072,0.041,-0.033,109.0,116.0,104.0,13.3,1505.3,323.0,-0.7,1.8,2470.091,13.32,0.082,299.7
2020-02-25T02:13:03,42.805,6.029,-0.067,0.076,-0.034,108.0,114.0,105.0,13.3,1505.3,328.1,-0.7,1.8,2470.052,13.32,0.101,318.6
2020-02-25T02:16:03,42.805,6.029,-0.039,0.047,0.003,109.0,115.0,104.0,13.4,1505.3,325.0,-0.7,1.8,2470.089,13.32,0.061,320.3
2020-02-25T02:19:03,42.805,6.029,-0.047,0.056,-0.001,108.0,116.0,106.0,13.3,1505.3,326.7,-0.7,1.8,2470.048,13.32,0.073,320.0
2020-02-25T02:22:02,42.805,6.029,-0.039,0.054,-0.001,108.0,117.0,105.0,13.4,1505.3,326.0,-0.7,1.8,2470.037,13.32,0.066,324.2
2020-02-25T02:25:03,42.805,6.029,-0.054,0.059,0.039,109.0,117.0,105.0,13.3,1505.3,325.3,-0.7,1.8,2470.034,13.32,0.079,317.5
2020-02-25T02:28:03,42.805,6.029,-0.068,0.063,0.002,109.0,117.0,105.0,13.4,1505.3,325.3,-0.7,1.8,2470.054,13.32,0.092,312.8
2020-02-25T02:31:03,42.805,6.029,-0.041,0.048,-0.009,109.0,117.0,105.0,13.4,1505.3,326.9,-0.7,1.9,2470.061,13.32,0.063,319.5
2020-02-25T02:34:03,42.805,6.029,-0.033,0.058,0.033,109.0,117.0,105.0,13.3,1505.3,327.4,-0.7,1.9,2470.077,13.32,0.066,330.4
2020-02-25T02:37:02,42.805,6.029,-0.051,0.061,0.015,109.0,116.0,104.0,13.4,1505.3,324.1,-0.7,1.8,2470.079,13.32,0.079,320.1
2020-02-25T02:40:03,42.805,6.029,-0.036,0.066,0.027,109.0,116.0,104.0,13.4,1505.3,327.8,-0.7,1.8,2470.09,13.32,0.075,331.4
2020-02-25T02:43:03,42.805,6.029,-0.031,0.07,-0.015,107.0,116.0,104.0,13.4,1505.3,325.9,-0.7,1.8,2470.09,13.32,0.076,336.1
2020-02-25T02:46:03,42.805,6.029,-0.058,0.055,-0.023,109.0,116.0,104.0,13.4,1505.3,326.9,-0.7,1.9,2470.096,13.32,0.079,313.5
2020-02-25T02:49:03,42.805,6.029,-0.028,0.056,0.031,108.0,116.0,104.0,13.4,1505.3,323.5,-0.7,1.8,2470.064,13.32,0.062,333.4
2020-02-25T02:52:03,42.805,6.029,-0.066,0.055,-0.042,109.0,116.0,105.0,13.3,1505.3,327.9,-0.7,1.8,2470.111,13.32,0.085,309.8
2020-02-25T02:55:03,42.805,6.029,-0.06,0.032,-0.03,108.0,116.0,105.0,13.4,1505.3,325.2,-0.7,1.8,2470.071,13.32,0.067,298.1
2020-02-25T02:58:03,42.805,6.029,-0.027,0.062,0.012,108.0,117.0,104.0,13.4,1505.3,325.6,-0.7,1.8,2470.067,13.32,0.067,336.5
2020-02-25T03:04:03,42.805,6.029,-0.05,0.075,0.031,109.0,117.0,104.0,13.4,1505.2,323.0,-0.7,1.8,2470.115,13.3,0.09,326.3
2020-02-25T03:07:03,42.805,6.029,-0.043,0.054,-0.023,109.0,117.0,104.0,13.3,1505.3,327.9,-0.7,1.8,2470.077,13.31,0.069,321.5
2020-02-25T03:13:02,42.805,6.029,-0.047,0.055,-0.001,108.0,116.0,106.0,13.4,1505.2,327.2,-0.7,1.8,2470.141,13.3,0.072,319.5
2020-02-25T03:16:03,42.805,6.029,-0.04,0.031,-0.016,109.0,117.0,104.0,13.4,1505.3,323.1,-0.7,1.9,2470.116,13.31,0.05,307.8
2020-02-25T03:19:03,42.805,6.029,-0.029,0.06,0.009,108.0,115.0,104.0,13.3,1505.3,327.8,-0.7,1.8,2470.133,13.31,0.066,334.2
2020-02-25T03:22:03,42.805,6.029,-0.047,0.059,0.019,108.0,116.0,103.0,13.4,1505.3,325.3,-0.7,1.8,2470.138,13.32,0.075,321.5
2020-02-25T03:25:03,42.805,6.029,-0.053,0.051,-0.005,109.0,116.0,104.0,13.4,1505.3,326.8,-0.7,1.8,2470.113,13.32,0.073,313.9
2020-02-25T03:28:03,42.805,6.029,-0.052,0.054,0.019,108.0,119.0,104.0,13.4,1505.3,323.7,-0.7,1.8,2470.097,13.32,0.074,316.1
2020-02-25T03:31:03,42.805,6.029,-0.063,0.042,0.015,108.0,119.0,104.0,13.4,1505.3,324.2,-0.7,1.9,2470.083,13.32,0.075,303.7
2020-02-25T03:34:03,42.805,6.029,-0.054,0.056,0.002,107.0,117.0,104.0,13.4,1505.3,328.1,-0.7,1.8,2470.132,13.32,0.077,316.0
2020-02-25T03:37:03,42.805,6.029,-0.057,0.079,0.033,107.0,115.0,104.0,13.4,1505.3,326.0,-0.7,1.8,2470.088,13.32,0.097,324.2
2020-02-25T03:40:03,42.805,6.029,-0.028,0.067,0.023,109.0,118.0,104.0,13.3,1505.3,325.2,-0.7,1.8,2470.109,13.32,0.072,337.3
2020-02-25T03:43:03,42.805,6.029,-0.036,0.078,-0.006,108.0,115.0,106.0,13.4,1505.3,328.6,-0.7,1.9,2470.104,13.32,0.085,335.2
2020-02-25T03:46:03,42.805,6.029,-0.044,0.07,0.01,109.0,117.0,104.0,13.4,1505.3,324.9,-0.7,1.8,2470.112,13.32,0.082,327.8
2020-02-25T03:49:03,42.805,6.029,-0.067,0.069,-0.025,108.0,117.0,104.0,13.4,1505.3,323.8,-0.7,1.8,2470.075,13.32,0.096,315.8
2020-02-25T03:52:03,42.805,6.029,-0.046,0.056,0.007,107.0,117.0,106.0,13.4,1505.3,327.6,-0.7,1.8,2470.121,13.32,0.072,320.6
2020-02-25T03:55:03,42.805,6.029,-0.023,0.063,0.004,108.0,118.0,103.0,13.4,1505.3,327.4,-0.7,1.8,2470.136,13.32,0.067,339.9
2020-02-25T03:58:03,42.805,6.029,-0.059,0.068,0.003,107.0,117.0,104.0,13.4,1505.3,323.5,-0.7,1.8,2470.096,13.32,0.09,319.1
2020-02-25T04:04:03,42.805,6.029,-0.046,0.072,0.015,108.0,117.0,104.0,13.4,1505.3,324.6,-0.7,1.8,2470.138,13.31,0.085,327.4
2020-02-25T04:07:02,42.805,6.029,-0.039,0.057,0.009,107.0,118.0,103.0,13.4,1505.3,323.9,-0.7,1.8,2470.134,13.31,0.069,325.6
2020-02-25T04:10:02,42.805,6.029,-0.052,0.045,0.004,108.0,117.0,105.0,13.3,1505.3,328.5,-0.7,1.8,2470.112,13.32,0.068,310.9
2020-02-25T04:13:03,42.805,6.029,-0.035,0.061,-0.011,108.0,118.0,104.0,13.4,1505.3,324.9,-0.7,1.8,2470.132,13.32,0.07,330.2
2020-02-25T04:16:03,42.805,6.029,-0.013,0.059,-0.011,108.0,117.0,104.0,13.3,1505.3,326.4,-0.7,1.8,2470.127,13.32,0.06,347.6
2020-02-25T04:19:03,42.805,6.029,-0.026,0.054,0.017,107.0,118.0,103.0,13.4,1505.3,327.9,-0.7,1.8,2470.129,13.32,0.059,334.3
2020-02-25T04:22:03,42.805,6.029,-0.031,0.057,-0.009,107.0,118.0,103.0,13.4,1505.3,325.8,-0.7,1.8,2470.099,13.32,0.064,331.5
2020-02-25T04:25:03,42.805,6.029,-0.061,0.048,-0.035,107.0,118.0,104.0,13.3,1505.3,328.1,-0.7,1.8,2470.133,13.33,0.077,308.2
2020-02-25T04:28:03,42.805,6.029,-0.035,0.057,-0.004,107.0,118.0,104.0,13.4,1505.3,327.2,-0.7,1.8,2470.135,13.33,0.066,328.4
2020-02-25T04:31:03,42.805,6.029,-0.05,0.053,-0.013,109.0,117.0,105.0,13.4,1505.3,326.8,-0.7,1.8,2470.107,13.33,0.072,316.7
2020-02-25T04:34:03,42.805,6.029,-0.057,0.071,-0.019,107.0,116.0,103.0,13.3,1505.3,326.3,-0.7,1.8,2470.146,13.32,0.091,321.2
2020-02-25T04:37:02,42.805,6.029,-0.041,0.067,0.004,108.0,116.0,104.0,13.4,1505.3,328.5,-0.7,1.8,2470.145,13.32,0.078,328.5
2020-02-25T04:40:03,42.805,6.029,-0.066,0.074,-0.045,107.0,116.0,104.0,13.4,1505.3,327.0,-0.7,1.8,2470.141,13.32,0.099,318.3
2020-02-25T04:43:03,42.805,6.029,-0.036,0.087,0.006,107.0,117.0,104.0,13.4,1505.3,328.5,-0.7,1.9,2470.142,13.32,0.094,337.5
2020-02-25T04:46:03,42.805,6.029,-0.026,0.062,0.021,107.0,117.0,104.0,13.4,1505.3,326.0,-0.7,1.8,2470.128,13.32,0.067,337.3
2020-02-25T04:49:03,42.805,6.029,-0.021,0.054,-0.006,105.0,116.0,104.0,13.3,1505.3,326.6,-0.7,1.9,2470.149,13.32,0.057,338.8
2020-02-25T04:52:02,42.805,6.029,-0.039,0.046,-0.006,106.0,116.0,103.0,13.4,1505.3,324.9,-0.7,1.8,2470.169,13.32,0.06,319.7
2020-02-25T04:55:03,42.805,6.029,-0.042,0.049,0.012,106.0,118.0,103.0,13.4,1505.3,326.6,-0.7,1.8,2470.165,13.32,0.064,319.4
2020-02-25T04:58:03,42.805,6.029,-0.051,0.06,-0.04,108.0,116.0,103.0,13.4,1505.3,327.8,-0.7,1.8,2470.142,13.33,0.078,319.6
2020-02-25T05:04:02,42.805,6.029,-0.02,0.069,0.007,106.0,117.0,103.0,13.3,1505.3,323.2,-0.8,1.8,2470.164,13.31,0.071,343.8
2020-02-25T05:07:02,42.805,6.029,-0.049,0.059,-0.041,107.0,118.0,104.0,13.3,1505.3,326.5,-0.7,1.8,2470.169,13.31,0.076,320.3
2020-02-25T05:10:03,42.805,6.029,-0.054,0.054,-0.05,106.0,117.0,103.0,13.4,1505.3,325.7,-0.7,1.9,2470.178,13.32,0.076,315.0
2020-02-25T05:13:03,42.805,6.029,-0.03,0.059,0.021,108.0,117.0,103.0,13.4,1505.3,326.2,-0.7,1.8,2470.199,13.32,0.066,333.0
2020-02-25T05:16:03,42.805,6.029,-0.04,0.045,0.01,107.0,117.0,103.0,13.4,1505.3,324.3,-0.7,1.8,2470.193,13.32,0.06,318.4
2020-02-25T05:19:03,42.805,6.029,-0.026,0.073,0.014,106.0,117.0,104.0,13.3,1505.3,327.1,-0.7,1.8,2470.145,13.32,0.077,340.4
2020-02-25T05:22:03,42.805,6.029,-0.044,0.055,-0.024,106.0,118.0,102.0,13.3,1505.3,326.1,-0.7,1.9,2470.22,13.32,0.07,321.3
2020-02-25T05:25:03,42.805,6.029,-0.03,0.058,0.036,106.0,117.0,102.0,13.4,1505.3,326.8,-0.7,1.8,2470.185,13.32,0.065,332.6
2020-02-25T05:28:03,42.805,6.029,-0.056,0.046,-0.029,105.0,117.0,102.0,13.4,1505.3,324.8,-0.7,1.8,2470.24,13.32,0.072,309.4
2020-02-25T05:31:03,42.805,6.029,-0.033,0.057,-0.03,106.0,118.0,103.0,13.4,1505.3,326.2,-0.7,1.8,2470.191,13.32,0.065,329.9
2020-02-25T05:34:03,42.805,6.029,-0.041,0.031,-0.016,105.0,115.0,103.0,13.4,1505.3,323.1,-0.7,1.8,2470.189,13.33,0.051,307.1
2020-02-25T05:37:03,42.805,6.029,-0.028,0.051,0.001,107.0,116.0,103.0,13.4,1505.3,328.5,-0.7,1.8,2470.191,13.33,0.058,331.2
2020-02-25T05:40:03,42.805,6.029,-0.047,0.05,-0.009,106.0,117.0,102.0,13.3,1505.3,326.5,-0.7,1.8,2470.231,13.33,0.068,316.8
2020-02-25T05:43:03,42.805,6.029,-0.052,0.065,-0.03,105.0,117.0,102.0,13.4,1505.3,323.5,-0.7,1.8,2470.202,13.33,0.083,321.3
2020-02-25T05:46:03,42.805,6.029,-0.048,0.072,-0.02,105.0,117.0,103.0,13.4,1505.3,328.4,-0.7,1.8,2470.224,13.33,0.086,326.3
2020-02-25T05:49:03,42.805,6.029,-0.056,0.046,-0.011,106.0,116.0,103.0,13.3,1505.3,324.7,-0.7,1.8,2470.248,13.33,0.072,309.4
2020-02-25T05:52:03,42.805,6.029,-0.036,0.075,-0.008,107.0,115.0,104.0,13.4,1505.3,325.0,-0.7,1.8,2470.174,13.33,0.083,334.4
2020-02-25T05:55:03,42.805,6.029,-0.039,0.056,-0.013,106.0,115.0,102.0,13.4,1505.3,327.2,-0.7,1.8,2470.229,13.33,0.068,325.1
2020-02-25T05:58:03,42.805,6.029,-0.063,0.041,-0.013,107.0,114.0,103.0,13.4,1505.3,322.8,-0.7,1.9,2470.217,13.33,0.075,303.1
2020-02-25T06:04:02,42.805,6.029,-0.033,0.061,0.013,106.0,116.0,103.0,13.4,1505.3,325.5,-0.7,1.9,2470.27,13.31,0.069,331.6
2020-02-25T06:07:03,42.805,6.029,-0.04,0.046,-0.01,106.0,117.0,103.0,13.4,1505.3,325.5,-0.8,1.8,2470.274,13.31,0.06,319.0
2020-02-25T06:10:02,42.805,6.029,-0.044,0.051,-0.012,106.0,117.0,101.0,13.4,1505.3,323.5,-0.7,1.9,2470.282,13.32,0.067,319.2
2020-02-25T06:13:03,42.805,6.029,-0.062,0.067,-0.044,105.0,117.0,102.0,13.4,1505.3,327.1,-0.7,1.8,2470.282,13.32,0.091,317.2
2020-02-25T06:16:03,42.805,6.029,-0.039,0.054,-0.003,107.0,115.0,102.0,13.3,1505.3,325.1,-0.7,1.8,2470.25,13.32,0.066,324.2
2020-02-25T06:19:03,42.805,6.029,-0.036,0.066,-0.01,106.0,115.0,103.0,13.4,1505.3,326.1,-0.7,1.8,2470.244,13.32,0.075,331.4
2020-02-25T06:22:03,42.805,6.029,-0.044,0.041,-0.013,107.0,116.0,103.0,13.4,1505.3,323.5,-0.7,1.9,2470.234,13.32,0.06,313.0
2020-02-25T06:25:03,42.805,6.029,-0.086,0.04,-0.052,107.0,114.0,104.0,13.4,1505.3,326.7,-0.7,1.8,2470.272,13.32,0.094,294.9
2020-02-25T06:28:03,42.805,6.029,-0.068,0.06,-0.072,107.0,116.0,103.0,13.4,1505.3,324.4,-0.7,1.8,2470.246,13.33,0.09,311.4
2020-02-25T06:31:03,42.805,6.029,-0.041,0.058,-0.026,107.0,115.0,103.0,13.4,1505.3,327.2,-0.7,1.8,2470.262,13.33,0.071,324.7
2020-02-25T06:34:03,42.805,6.029,-0.034,0.042,-0.015,106.0,116.0,102.0,13.4,1505.3,324.1,-0.7,1.8,2470.28,13.33,0.054,321.0
2020-02-25T06:37:02,42.805,6.029,-0.021,0.042,0.008,106.0,114.0,105.0,13.3,1505.3,326.4,-0.7,1.8,2470.226,13.33,0.046,333.4
2020-02-25T06:40:03,42.805,6.029,-0.045,0.065,-0.021,106.0,115.0,102.0,13.3,1505.3,324.6,-0.7,1.8,2470.301,13.33,0.079,325.3
2020-02-25T06:43:03,42.805,6.029,-0.036,0.062,0.0,106.0,116.0,103.0,13.4,1505.3,325.5,-0.7,1.8,2470.26,13.32,0.071,329.9
2020-02-25T06:46:03,42.805,6.029,-0.018,0.061,0.0,106.0,116.0,103.0,13.4,1505.3,325.9,-0.7,1.8,2470.31,13.32,0.063,343.6
2020-02-25T06:49:03,42.805,6.029,-0.048,0.071,-0.02,105.0,115.0,102.0,13.4,1505.3,325.3,-0.7,1.8,2470.298,13.32,0.085,325.9
2020-02-25T06:52:03,42.805,6.029,-0.053,0.044,-0.018,104.0,115.0,103.0,13.3,1505.3,325.4,-0.7,1.8,2470.268,13.32,0.068,309.7
2020-02-25T06:55:03,42.805,6.029,-0.041,0.05,-0.051,107.0,115.0,103.0,13.4,1505.3,326.9,-0.7,1.8,2470.299,13.32,0.064,320.7
2020-02-25T06:58:03,42.805,6.029,-0.029,0.056,-0.021,107.0,114.0,103.0,13.4,1505.3,325.9,-0.7,1.8,2470.305,13.32,0.063,332.6
2020-02-25T07:04:02,42.805,6.029,-0.02,0.062,-0.001,105.0,116.0,104.0,13.4,1505.2,326.2,-0.8,1.8,2470.322,13.3,0.065,342.1
2020-02-25T07:07:03,42.805,6.029,-0.066,0.067,-0.009,105.0,116.0,101.0,13.4,1505.3,325.2,-0.7,1.8,2470.313,13.31,0.094,315.4
2020-02-25T07:10:03,42.805,6.029,-0.022,0.056,-0.005,105.0,116.0,103.0,13.3,1505.3,327.0,-0.7,1.9,2470.306,13.32,0.06,338.6
2020-02-25T07:13:03,42.805,6.029,-0.066,0.063,-0.049,107.0,114.0,103.0,13.3,1505.3,326.3,-0.7,1.9,2470.285,13.32,0.091,313.7
2020-02-25T07:16:03,42.805,6.029,-0.033,0.033,-0.024,106.0,115.0,102.0,13.3,1505.3,326.9,-0.7,1.8,2470.266,13.32,0.046,315.0
2020-02-25T07:19:03,42.805,6.029,-0.029,0.045,-0.031,106.0,114.0,103.0,13.4,1505.3,326.8,-0.7,1.8,2470.301,13.32,0.053,327.2
2020-02-25T07:22:02,42.805,6.029,-0.057,0.051,-0.022,105.0,115.0,102.0,13.4,1505.3,328.3,-0.7,1.8,2470.345,13.32,0.076,311.8
2020-02-25T07:25:03,42.805,6.029,-0.03,0.037,-0.018,107.0,115.0,102.0,13.3,1505.3,324.8,-0.7,1.9,2470.385,13.32,0.047,321.0
2020-02-25T07:28:03,42.805,6.029,-0.041,0.065,-0.016,107.0,113.0,103.0,13.4,1505.3,328.1,-0.7,1.8,2470.333,13.32,0.076,327.8
2020-02-25T07:31:03,42.805,6.029,-0.062,0.05,-0.026,106.0,114.0,102.0,13.4,1505.3,323.2,-0.7,1.8,2470.31,13.32,0.079,308.9
2020-02-25T07:34:03,42.805,6.029,-0.059,0.057,-0.027,104.0,115.0,103.0,13.3,1505.3,327.0,-0.7,1.8,2470.309,13.32,0.082,314.0
2020-02-25T07:37:02,42.805,6.029,-0.041,0.056,-0.027,106.0,114.0,103.0,13.4,1505.3,328.0,-0.7,1.8,2470.276,13.32,0.069,323.8
2020-02-25T07:40:03,42.805,6.029,-0.063,0.063,-0.021,105.0,115.0,102.0,13.4,1505.3,325.1,-0.7,1.8,2470.295,13.32,0.089,315.0
2020-02-25T07:43:03,42.805,6.029,-0.024,0.035,-0.042,105.0,115.0,103.0,13.4,1505.3,324.3,-0.7,1.9,2470.307,13.32,0.042,325.6
2020-02-25T07:46:03,42.805,6.029,-0.076,0.048,-0.055,108.0,114.0,103.0,13.4,1505.3,325.1,-0.7,1.8,2470.314,13.32,0.089,302.3
2020-02-25T07:49:03,42.805,6.029,-0.066,0.061,-0.015,105.0,116.0,102.0,13.3,1505.3,327.0,-0.7,1.8,2470.372,13.32,0.089,312.7
2020-02-25T07:52:03,42.805,6.029,-0.018,0.058,0.023,106.0,114.0,103.0,13.3,1505.3,323.9,-0.7,1.8,2470.329,13.32,0.06,342.8
2020-02-25T07:55:03,42.805,6.029,-0.029,0.037,0.011,105.0,113.0,102.0,13.3,1505.3,323.7,-0.7,1.8,2470.355,13.32,0.047,321.9
2020-02-25T07:58:03,42.805,6.029,-0.032,0.054,-0.012,105.0,115.0,103.0,13.3,1505.3,327.4,-0.7,1.8,2470.361,13.32,0.062,329.3
2020-02-25T08:04:03,42.805,6.029,-0.032,0.057,-0.026,106.0,114.0,103.0,13.4,1505.3,326.6,-0.7,1.8,2470.394,13.31,0.065,330.7
2020-02-25T08:07:03,42.805,6.029,-0.031,0.075,-0.003,105.0,114.0,102.0,13.4,1505.3,323.2,-0.7,1.8,2470.281,13.31,0.081,337.5
2020-02-25T08:10:03,42.805,6.029,-0.06,0.046,-0.006,106.0,113.0,102.0,13.4,1505.3,324.4,-0.7,1.8,2470.385,13.32,0.075,307.5
2020-02-25T08:13:03,42.805,6.029,-0.017,0.059,0.018,105.0,112.0,102.0,13.3,1505.3,326.5,-0.7,1.8,2470.342,13.32,0.061,343.9
2020-02-25T08:19:02,42.805,6.029,-0.059,0.052,-0.042,106.0,113.0,102.0,13.3,1505.2,327.1,-0.7,1.8,2470.37,13.3,0.078,311.4
2020-02-25T08:22:03,42.805,6.029,-0.047,0.067,0.0,106.0,111.0,103.0,13.4,1505.3,324.4,-0.7,1.8,2470.374,13.31,0.081,324.9
2020-02-25T08:25:03,42.805,6.029,-0.034,0.066,-0.03,105.0,113.0,102.0,13.3,1505.3,325.6,-0.7,1.9,2470.376,13.31,0.074,332.7
2020-02-25T08:28:03,42.805,6.029,-0.047,0.046,0.0,106.0,114.0,102.0,13.4,1505.3,324.5,-0.7,1.8,2470.37,13.32,0.065,314.4
2020-02-25T08:31:03,42.805,6.029,-0.06,0.023,-0.033,106.0,114.0,103.0,13.4,1505.3,325.1,-0.7,1.8,2470.382,13.32,0.064,291.0
2020-02-25T08:34:03,42.805,6.029,-0.061,0.052,-0.02,106.0,113.0,102.0,13.4,1505.3,323.8,-0.7,1.8,2470.384,13.32,0.08,310.4
2020-02-25T08:37:02,42.805,6.029,-0.035,0.06,-0.008,106.0,113.0,102.0,13.4,1505.3,326.6,-0.7,1.8,2470.377,13.32,0.069,329.7
2020-02-25T08:40:03,42.805,6.029,-0.073,0.046,-0.021,107.0,113.0,102.0,13.4,1505.3,324.2,-0.7,1.8,2470.336,13.32,0.086,302.2
2020-02-25T08:43:03,42.805,6.029,-0.051,0.043,-0.016,106.0,113.0,103.0,13.4,1505.3,323.6,-0.8,1.8,2470.373,13.32,0.066,310.1
2020-02-25T08:46:03,42.805,6.029,-0.049,0.065,-0.021,107.0,113.0,103.0,13.4,1505.3,324.4,-0.7,1.8,2470.348,13.32,0.081,323.0
2020-02-25T08:49:03,42.805,6.029,-0.052,0.059,-0.031,105.0,114.0,103.0,13.3,1505.3,324.3,-0.7,1.8,2470.346,13.32,0.078,318.6
2020-02-25T08:52:02,42.805,6.029,-0.024,0.038,0.011,106.0,113.0,103.0,13.4,1505.3,327.6,-0.7,1.9,2470.343,13.32,0.044,327.7
2020-02-25T08:55:03,42.805,6.029,-0.059,0.063,-0.001,106.0,112.0,103.0,13.4,1505.3,326.8,-0.7,1.8,2470.347,13.32,0.086,316.9
2020-02-25T08:58:03,42.805,6.029,-0.053,0.065,-0.035,107.0,112.0,102.0,13.4,1505.3,325.1,-0.7,1.8,2470.322,13.32,0.083,320.8
2020-02-25T09:04:03,42.805,6.029,-0.026,0.048,0.001,106.0,113.0,102.0,13.4,1505.2,326.1,-0.8,1.8,2470.389,13.3,0.054,331.6
2020-02-25T09:07:03,42.805,6.029,-0.054,0.052,-0.048,108.0,112.0,104.0,13.4,1505.3,324.4,-0.7,1.8,2470.38,13.31,0.074,313.9
2020-02-25T09:10:03,42.805,6.029,-0.043,0.046,-0.013,107.0,112.0,102.0,13.4,1505.3,327.7,-0.7,1.9,2470.374,13.32,0.062,316.9
2020-02-25T09:13:03,42.805,6.029,-0.051,0.046,-0.008,106.0,114.0,104.0,13.4,1505.3,326.7,-0.7,1.8,2470.342,13.32,0.068,312.0
2020-02-25T09:16:03,42.805,6.029,-0.066,0.052,0.02,107.0,113.0,102.0,13.4,1505.3,326.0,-0.7,1.9,2470.365,13.32,0.084,308.2
2020-02-25T09:19:03,42.805,6.029,-0.044,0.039,0.003,107.0,113.0,102.0,13.4,1505.3,326.3,-0.7,1.8,2470.353,13.32,0.058,311.6
2020-02-25T09:22:03,42.805,6.029,-0.053,0.05,-0.006,106.0,113.0,104.0,13.4,1505.3,326.1,-0.7,1.8,2470.331,13.32,0.072,313.3
2020-02-25T09:25:03,42.805,6.029,-0.06,0.06,-0.016,105.0,115.0,103.0,13.4,1505.3,323.3,-0.7,1.9,2470.318,13.32,0.084,315.0
2020-02-25T09:28:03,42.805,6.029,-0.036,0.059,0.014,107.0,113.0,103.0,13.4,1505.3,325.7,-0.7,1.8,2470.356,13.32,0.069,328.6
2020-02-25T09:31:03,42.805,6.029,-0.052,0.045,-0.036,107.0,113.0,103.0,13.4,1505.3,323.8,-0.7,1.8,2470.313,13.32,0.068,310.9
2020-02-25T09:34:03,42.805,6.029,-0.02,0.046,-0.004,106.0,114.0,102.0,13.3,1505.3,327.4,-0.7,1.8,2470.348,13.32,0.05,336.5
2020-02-25T09:37:03,42.805,6.029,-0.059,0.057,0.015,106.0,113.0,102.0,13.4,1505.3,324.3,-0.7,1.8,2470.325,13.32,0.082,314.0
2020-02-25T09:40:03,42.805,6.029,-0.017,0.044,0.015,104.0,113.0,103.0,13.4,1505.3,325.7,-0.7,1.8,2470.348,13.32,0.047,338.9
2020-02-25T09:43:03,42.805,6.029,-0.044,0.037,-0.012,106.0,113.0,103.0,13.4,1505.3,326.6,-0.7,1.9,2470.307,13.32,0.057,310.1
2020-02-25T09:46:03,42.805,6.029,-0.069,0.056,-0.009,106.0,113.0,103.0,13.4,1505.3,328.5,-0.7,1.8,2470.331,13.32,0.088,309.1
2020-02-25T09:49:03,42.805,6.029,-0.05,0.058,-0.028,106.0,113.0,103.0,13.4,1505.3,323.5,-0.7,1.8,2470.304,13.32,0.076,319.2
2020-02-25T09:52:03,42.805,6.029,-0.04,0.051,0.003,106.0,114.0,103.0,13.4,1505.3,326.7,-0.7,1.8,2470.345,13.32,0.064,321.9
2020-02-25T09:55:03,42.805,6.029,-0.035,0.037,-0.022,106.0,112.0,103.0,13.4,1505.3,326.8,-0.7,1.8,2470.301,13.32,0.05,316.6
2020-02-25T09:58:03,42.805,6.029,-0.045,0.073,0.003,106.0,114.0,103.0,13.3,1505.3,328.0,-0.7,1.8,2470.322,13.32,0.085,328.3
2020-02-25T10:04:03,42.805,6.029,-0.057,0.042,-0.006,106.0,114.0,103.0,13.4,1505.2,322.5,-0.8,1.8,2470.322,13.3,0.07,306.4